Theta_e
314 313 313 312 309 308 307 310 309 308 308 309 309 309 307 306 306 306 316 317 317 314 313 317 317 317 317 317 317 317 316 317 317 315 314 313 313 313 313 314 313 313 313 313 316
313 312 312 309 305 303 303 304 306 307 308 309 309 309 307 306 308 314 309 315 313 311 318 317 317 316 316 317 317 316 319 320 316 315 315 314 315 314 314 313 314 315 314 316 316
311 310 309 303 302 301 301 301 302 304 307 308 311 309 307 306 317 317 319 315 312 312 317 317 317 317 318 317 317 317 318 317 317 316 316 315 314 314 314 315 314 315 314 314 315
310 309 305 299 298 299 299 299 300 301 305 307 309 310 307 311 308 319 318 313 310 314 317 318 317 317 317 316 316 318 316 316 316 316 316 315 314 314 314 314 313 313 314 314 314
308 306 300 296 297 297 298 298 299 299 302 306 310 312 310 316 313 319 315 311 311 315 317 317 316 316 316 315 314 315 314 316 315 315 315 315 315 315 315 314 313 313 314 314 314
308 305 300 298 297 297 297 297 297 298 301 307 310 312 312 310 316 317 312 313 314 316 316 316 316 316 316 316 316 315 315 316 316 316 316 317 316 314 314 312 313 314 314 313 314
306 304 300 298 299 298 299 297 297 298 304 310 311 312 315 311 313 315 316 315 315 315 315 315 316 316 315 316 316 317 318 316 316 317 317 315 315 314 313 312 312 313 314 315 314
298 296 295 296 298 298 298 297 297 303 309 310 312 315 312 313 314 317 317 315 315 315 315 316 316 316 317 315 317 318 317 319 317 318 316 314 315 313 312 312 312 312 312 312 314
295 295 295 301 302 299 297 300 304 309 312 310 313 316 313 311 311 315 316 315 315 315 315 316 316 316 316 318 317 318 318 318 316 315 317 314 315 313 313 312 311 311 310 311 312
294 294 298 303 300 301 309 311 309 312 316 313 315 312 312 313 312 312 314 314 316 315 317 316 316 317 315 316 314 312 318 315 313 312 313 315 315 314 311 311 311 309 310 310 313
294 295 302 304 301 308 310 312 308 310 313 315 315 313 311 314 314 314 312 314 315 315 317 317 317 318 317 317 316 315 312 310 310 310 312 313 313 313 312 312 310 311 312 312 313
294 296 303 305 304 307 307 309 309 308 310 309 308 309 310 313 314 315 315 315 316 317 315 315 318 318 317 316 313 311 311 311 310 312 313 312 312 312 312 312 312 311 313 312 312
294 297 303 305 305 307 308 309 309 310 310 310 310 311 310 310 311 314 314 314 315 315 316 315 315 315 315 313 313 311 311 311 312 312 312 313 312 313 314 312 312 311 313 314 314
294 299 305 306 305 309 309 308 309 309 308 313 312 312 311 310 312 314 314 314 314 313 312 312 313 314 313 312 312 312 310 312 315 313 313 312 313 312 312 312 312 310 309 309 309
294 301 304 307 309 309 304 306 309 309 297 307 310 309 311 311 311 313 313 313 314 312 312 311 311 311 313 312 311 311 313 314 314 313 313 314 311 313 311 313 311 310 308 305 306
294 303 301 301 306 304 305 309 310 305 296 307 310 310 308 309 311 314 314 313 312 313 311 312 310 311 310 311 311 311 312 312 312 312 312 313 314 314 312 312 311 307 306 305 306
295 303 302 302 296 303 308 309 302 299 307 309 308 307 307 308 308 313 314 315 314 311 310 308 308 310 310 310 310 312 313 315 315 317 317 314 313 315 312 311 308 306 307 306 306
297 306 304 298 301 306 309 305 302 310 307 306 306 306 308 305 306 305 305 307 305 305 308 308 308 311 310 311 312 313 313 312 318 318 314 313 315 317 312 308 306 306 306 307 306
298 308 306 295 302 306 305 305 307 307 302 302 305 306 305 305 304 305 304 303 302 299 304 308 308 307 307 309 310 310 314 312 314 311 309 311 312 314 311 308 306 306 306 306 304
301 305 301 296 303 308 305 308 306 300 298 301 306 305 305 303 304 304 305 299 299 297 297 302 305 307 308 308 308 311 310 312 313 315 317 313 313 318 311 309 306 305 305 304 303
302 301 299 296 305 301 303 303 302 297 296 298 301 302 303 298 297 302 304 298 296 296 296 295 300 305 305 307 308 307 310 311 311 310 314 314 313 311 307 305 304 302 302 302 301
297 297 297 298 295 292 294 299 298 295 294 296 296 296 295 293 293 295 301 299 294 294 294 294 294 297 302 301 302 303 305 306 309 311 309 309 311 307 305 304 303 301 301 300 299
294 294 296 296 292 292 293 297 297 294 294 295 295 295 293 293 292 292 293 296 293 293 293 295 294 294 292 302 301 301 300 296 297 306 310 310 312 304 301 299 297 297 297 298 297
292 291 289 290 290 292 292 294 294 294 293 293 294 294 292 292 291 292 291 293 292 292 295 295 297 295 294 296 294 296 295 295 295 297 299 303 305 302 298 296 295 295 294 294 294
289 291 291 292 290 290 291 292 293 293 292 292 293 292 291 291 291 291 291 291 292 292 292 291 293 292 291 292 292 293 293 294 295 294 294 293 294 294 295 293 291 293 293 293 293
291 290 290 289 290 289 291 291 292 292 292 292 292 292 291 291 291 290 290 289 290 290 290 290 292 290 291 291 292 294 295 296 296 297 295 295 295 294 292 290 290 290 292 291 291
293 293 290 292 290 290 290 291 292 292 292 292 291 291 291 291 290 289 289 289 289 289 289 289 290 291 292 293 293 294 296 294 300 297 298 300 299 293 291 291 290 290 290 289 290
Wind_Speed
16 17 17 17 18 18 17 17 15 15 15 16 16 16 16 17 18 12 5 6 7 4 3 6 7 4 5 2 1 3 3 3 4 3 6 5 6 3 3 3 3 5 7 12 26
18 19 18 18 18 17 17 16 16 15 16 16 16 15 15 16 17 11 10 11 7 3 3 5 4 6 2 2 0 3 2 5 2 3 4 5 5 6 5 8 13 8 10 22 24
19 19 19 19 19 19 19 18 17 17 16 17 16 14 12 13 5 4 11 11 7 5 3 1 3 2 2 2 2 4 5 3 5 4 4 7 7 3 6 11 15 8 7 8 10
20 21 21 21 21 21 20 20 19 19 18 17 15 10 7 4 5 3 11 10 7 6 3 3 2 1 2 3 4 4 8 7 6 5 5 7 5 8 10 20 17 13 12 10 11
21 21 22 22 22 21 21 21 21 20 18 16 12 7 1 2 8 6 10 8 6 5 3 1 1 1 3 3 6 6 4 7 10 9 9 9 12 7 18 16 14 14 14 13 12
23 23 24 25 24 24 23 23 21 21 17 12 8 3 2 3 5 9 11 9 6 6 3 1 3 2 3 4 2 4 7 8 9 15 7 7 7 5 11 10 9 11 11 11 11
25 26 27 28 27 26 26 24 22 21 13 8 5 4 3 10 3 7 10 8 9 6 2 5 4 2 5 5 5 6 10 9 10 6 8 5 8 9 17 10 11 8 11 12 13
28 29 31 30 28 26 24 23 21 17 5 4 3 2 6 3 5 9 11 7 5 5 2 1 3 1 3 4 6 4 1 4 5 6 3 6 10 7 7 8 12 13 11 11 11
32 33 32 30 30 28 24 20 13 4 1 3 6 5 7 1 5 14 11 6 9 5 2 3 2 4 2 2 4 3 4 6 7 7 5 6 9 7 7 9 10 11 8 7 8
34 34 29 29 29 21 20 10 3 3 3 3 6 2 3 2 4 6 14 13 3 4 1 2 3 2 2 3 4 5 4 6 8 2 2 9 15 20 8 7 11 8 7 7 8
35 33 28 28 19 17 19 3 6 3 2 5 2 4 8 3 3 2 13 4 1 3 4 5 3 8 10 12 6 6 5 6 8 10 6 9 11 17 13 6 8 3 4 6 7
35 31 27 25 9 17 12 6 4 4 9 6 10 8 3 2 1 4 9 5 5 6 5 4 9 15 10 12 9 6 7 10 7 9 4 7 15 19 13 6 4 5 4 7 8
36 28 26 24 5 11 19 10 6 9 3 7 1 3 2 2 2 5 9 4 6 6 9 9 11 2 7 7 8 7 7 6 9 4 4 3 8 5 3 4 8 7 6 5 5
35 23 23 20 1 13 4 16 8 8 4 3 2 2 1 1 2 3 11 3 3 8 7 9 16 15 11 8 6 7 8 9 4 4 3 5 5 7 7 7 7 8 7 7 8
33 19 20 14 8 4 15 17 9 1 5 5 1 1 2 2 3 1 1 0 6 7 4 8 4 5 6 7 4 7 0 3 3 3 3 3 2 7 5 7 6 8 7 7 7
29 14 16 13 5 12 18 12 1 5 4 5 4 8 8 4 3 2 1 1 4 4 6 11 4 4 7 3 3 4 4 6 2 3 1 8 7 5 5 9 6 6 7 10 12
24 10 12 8 12 20 14 3 5 4 6 8 6 9 8 5 4 4 4 1 3 5 3 5 5 1 2 3 2 2 3 3 3 1 6 3 5 6 5 9 14 11 11 11 12
19 8 6 11 18 14 7 4 3 3 4 5 6 13 4 10 6 8 7 3 10 6 3 3 7 1 2 3 3 5 5 3 3 3 3 3 4 3 13 10 12 11 11 11 12
16 5 2 29 16 9 4 5 1 3 4 7 10 4 5 7 5 8 4 5 6 9 4 5 5 10 13 4 2 4 3 4 3 4 1 4 0 4 8 9 9 11 12 10 9
10 5 4 32 12 4 4 5 4 3 4 3 3 5 4 8 7 8 3 5 7 8 3 5 6 6 6 5 5 5 1 3 2 3 4 5 5 7 6 9 9 11 10 8 7
5 4 15 28 6 5 4 2 3 6 6 3 4 5 4 5 5 4 4 3 5 8 7 6 3 5 8 3 5 4 4 3 2 2 3 3 4 7 12 9 9 8 7 7 7
8 3 22 17 4 3 2 1 3 5 8 4 4 3 3 7 5 3 4 3 6 5 5 3 4 5 8 16 18 13 8 2 2 4 2 2 3 9 14 11 9 6 7 6 7
3 3 13 14 4 4 5 2 2 5 4 5 4 4 5 3 5 4 6 4 12 9 5 7 3 5 8 3 7 5 6 10 9 0 3 3 3 16 13 10 6 7 8 7 7
3 4 4 5 2 3 4 3 4 3 1 5 4 3 5 3 5 7 8 6 16 5 16 7 3 6 4 5 9 11 18 13 6 3 6 9 13 19 12 9 10 10 12 7 11
4 2 2 4 4 4 2 4 4 7 6 5 2 5 5 3 10 3 13 11 8 11 6 3 5 3 9 12 13 17 20 20 12 11 8 7 8 12 11 9 9 11 13 15 17
3 3 4 3 4 4 6 5 5 4 3 5 3 8 6 5 4 11 11 6 6 5 4 6 5 10 15 12 13 14 12 15 14 13 11 13 4 5 5 8 16 12 9 12 13
7 5 3 4 6 4 3 3 4 6 5 3 7 9 5 9 5 10 12 16 15 11 14 5 3 3 4 6 12 4 5 10 8 13 10 6 3 8 12 14 11 14 4 7 8
Wind_Direction
2 357 355 353 351 348 348 344 340 336 333 330 328 326 326 322 315 309 240 230 195 264 6 341 307 332 307 275 68 51 57 255 259 358 282 331 13 318 314 230 270 225 229 252 280
357 354 351 348 346 343 342 341 337 331 329 328 324 324 326 326 319 266 254 216 221 238 74 14 6 351 322 200 196 104 166 237 161 297 299 307 326 312 334 300 277 282 280 280 272
354 351 348 344 341 338 336 333 331 330 324 322 320 320 325 331 303 251 181 201 210 178 116 134 293 276 287 173 210 205 213 261 296 295 337 299 297 254 289 282 262 249 250 266 279
353 349 346 343 339 334 331 328 326 324 322 319 316 311 320 347 318 195 174 189 187 162 150 221 247 251 252 250 229 255 244 246 258 295 298 284 285 288 242 256 268 258 255 258 262
350 348 344 341 337 332 328 325 321 319 316 316 315 300 329 205 248 179 177 182 168 154 203 260 310 266 256 318 323 247 262 267 280 290 282 274 262 247 273 265 265 260 257 254 247
349 346 341 337 333 329 327 324 320 316 313 311 306 246 176 228 162 187 186 177 169 173 224 191 322 1 278 255 236 267 283 276 276 276 251 246 257 169 267 264 271 258 250 249 241
348 344 339 335 331 327 324 320 317 311 308 303 272 194 260 244 256 184 185 188 184 194 264 254 122 101 324 287 288 280 297 301 264 239 218 168 294 222 248 275 262 267 253 245 235
351 347 343 339 334 330 325 319 314 308 299 292 209 184 252 267 183 191 190 203 199 218 254 84 90 179 201 294 325 262 197 309 283 189 199 115 275 222 255 283 284 287 276 267 249
352 349 348 346 341 335 330 324 313 332 344 166 145 179 268 263 198 214 204 204 190 199 209 264 110 222 253 191 319 247 238 216 301 193 156 190 267 262 243 263 276 281 285 290 284
354 351 351 349 345 347 349 339 4 84 85 146 276 359 272 299 188 203 204 223 180 174 224 219 198 237 260 142 228 203 232 283 263 275 259 247 258 277 269 273 279 282 320 339 328
355 351 352 351 358 5 357 19 14 358 225 230 137 290 311 121 158 181 194 166 275 185 208 197 184 226 213 214 243 300 245 248 268 272 248 252 263 276 283 266 284 318 16 2 344
355 352 352 351 14 20 38 64 65 251 310 271 262 250 276 204 221 190 153 164 174 220 232 292 242 241 235 246 233 266 289 279 289 273 202 279 279 282 273 238 202 104 60 25 359
354 354 353 351 29 25 66 44 349 349 255 299 281 28 333 47 299 192 152 204 224 225 232 218 242 243 212 253 256 246 228 249 254 306 278 305 299 323 7 134 87 82 73 30 352
354 356 357 358 43 351 71 348 354 343 35 284 54 323 274 230 263 139 194 229 270 233 233 233 253 249 261 254 191 257 233 239 275 25 238 83 279 290 218 108 96 86 65 24 1
353 359 4 22 344 25 322 328 339 155 10 297 15 245 266 226 244 204 173 249 251 263 359 254 285 250 247 229 196 245 5 261 242 246 350 276 139 266 127 138 127 93 72 35 13
352 1 15 19 358 329 332 328 337 45 265 1 56 1 354 281 226 124 220 109 262 295 240 256 277 239 226 232 205 304 332 297 186 140 290 227 174 276 168 162 130 87 63 44 32
353 360 17 10 329 332 336 18 35 118 336 356 343 338 324 280 319 191 208 188 341 328 304 307 257 49 87 353 344 121 52 313 8 164 232 288 126 247 26 121 115 94 65 50 38
354 11 13 342 340 339 349 54 103 20 358 9 321 310 226 35 329 338 342 356 31 352 301 307 330 326 49 223 214 214 182 178 273 219 261 277 235 285 119 96 91 81 75 58 40
358 10 355 354 345 346 64 55 71 13 334 318 313 324 334 18 354 3 48 5 38 32 352 342 286 331 324 261 129 304 226 225 217 265 95 230 244 31 117 88 68 73 64 52 35
357 359 317 346 343 22 66 104 114 43 319 292 325 29 320 337 0 356 293 357 342 7 355 305 298 273 317 328 272 218 327 353 247 244 245 256 221 173 120 79 58 53 55 47 28
18 27 351 345 353 47 86 60 57 32 14 331 342 310 327 349 322 287 6 36 14 333 343 5 251 297 326 282 294 346 310 261 326 252 213 291 311 103 98 73 52 39 28 41 30
351 26 356 355 45 46 63 38 58 346 14 340 8 352 336 347 294 287 21 61 24 4 358 321 287 279 261 275 270 260 287 310 304 305 272 56 321 91 86 71 49 36 2 13 29
358 295 1 17 60 1 325 76 72 12 19 6 338 17 23 288 310 297 341 129 28 7 359 347 323 321 311 307 18 23 341 10 339 60 244 227 207 118 79 59 23 17 351 11 23
46 11 341 32 57 50 6 6 13 12 19 346 283 20 1 330 357 312 312 326 341 351 307 293 239 234 246 320 334 300 312 320 318 270 282 265 295 303 51 46 13 5 358 13 20
28 26 136 341 350 339 341 30 25 9 349 334 358 57 19 308 311 267 332 328 332 310 353 43 268 289 311 310 304 288 291 298 277 250 233 282 279 335 32 38 9 12 23 19 13
65 17 352 297 317 19 11 15 33 338 300 315 22 343 344 294 282 317 313 307 249 295 4 354 294 332 301 290 271 295 279 268 272 271 253 245 242 359 1 14 13 6 7 18 0
6 351 100 301 345 31 350 332 326 328 293 304 310 299 278 278 263 272 264 266 252 268 274 275 262 294 278 331 334 255 13 36 65 47 29 24 26 357 354 353 354 328 358 4 345